seed: p2v3s16

Total games: 232


  • Filter by # of Players
  • Filter by Score
  • Filter by Variant



ID # of Players Score Variant Date & Time Players
295624 2 30 Rainbow (6 Suits) 2020-09-12 — 06:24:47 UTC atlas, pbody
349764 2 30 Rainbow (6 Suits) 2020-11-21 — 17:40:57 UTC jule_2000, SunnywillHanabi
375685 2 30 Rainbow (6 Suits) 2020-12-19 — 09:05:03 UTC boba, methmatics
475938 2 30 Rainbow (6 Suits) 2021-03-21 — 17:20:11 UTC HelanaAshryvr, mario86
477597 2 30 Rainbow (6 Suits) 2021-03-23 — 02:50:56 UTC hambrenson, veganpecan
560143 2 30 Rainbow (6 Suits) 2021-06-12 — 03:52:27 UTC MMage, rainboy
565741 2 30 Rainbow (6 Suits) 2021-06-17 — 01:36:25 UTC eoehlsen, tantum1
633181 2 30 Rainbow (6 Suits) 2021-09-26 — 19:51:15 UTC Inygo2, Trase83
211739 2 29 Rainbow (6 Suits) 2020-06-19 — 18:15:59 UTC clspencer, sjforion
212377 2 29 Rainbow (6 Suits) 2020-06-20 — 02:47:11 UTC JustusR, Yoshi
233997 2 29 Rainbow (6 Suits) 2020-07-09 — 05:36:25 UTC aridante, nostalgiccat
248877 2 29 Rainbow (6 Suits) 2020-07-23 — 18:29:32 UTC higamy, Magnissico
251095 2 29 Rainbow (6 Suits) 2020-07-25 — 22:27:01 UTC 5thAccount, crazy
397317 2 29 Rainbow (6 Suits) 2021-01-09 — 02:40:17 UTC FrozenAnimal, Macsgirl
399367 2 29 Rainbow (6 Suits) 2021-01-10 — 19:28:30 UTC livelikediv, vaibhavram
417600 2 29 Rainbow (6 Suits) 2021-01-28 — 15:32:22 UTC lcflorencelo, slyrk
503227 2 29 Rainbow (6 Suits) 2021-04-16 — 19:42:48 UTC boobailey808, Mustang949
511216 2 29 Rainbow (6 Suits) 2021-04-24 — 11:12:53 UTC Pete2, Pugsister1
578708 2 29 Rainbow (6 Suits) 2021-06-30 — 20:15:52 UTC Frozen_Animal_, Macs_girl_
617236 2 29 Rainbow (6 Suits) 2021-08-29 — 14:25:19 UTC Andydemented, stowne
60394 2 28 Rainbow (6 Suits) 2019-10-24 — 00:30:19 UTC honzas, invarse
116411 2 28 Rainbow (6 Suits) 2020-04-11 — 00:56:20 UTC em, J3enjamin
129559 2 28 Rainbow (6 Suits) 2020-04-19 — 22:00:40 UTC alanpotato, Roroast
217443 2 28 Rainbow (6 Suits) 2020-06-24 — 22:22:48 UTC dramos, glauberdlg
255287 2 28 Rainbow (6 Suits) 2020-07-29 — 14:50:27 UTC mirthe, Vincenthart
419659 2 28 Rainbow (6 Suits) 2021-01-30 — 08:32:44 UTC n21, other
447219 2 28 Rainbow (6 Suits) 2021-02-24 — 00:23:26 UTC Redbeard124, SmolAngel
478926 2 28 Rainbow (6 Suits) 2021-03-24 — 08:08:11 UTC explorerus., raphaeleon
503844 2 28 Rainbow (6 Suits) 2021-04-17 — 03:59:20 UTC Frozen_Animal, Macs_girl
80269 2 27 Rainbow (6 Suits) 2020-02-16 — 20:42:53 UTC iggy2foots, logiciain
92060 2 27 Rainbow (6 Suits) 2020-03-19 — 18:28:48 UTC hu.mab, Stradguy
143763 2 27 Rainbow (6 Suits) 2020-04-29 — 20:45:46 UTC Giulist , saraquarantine
165218 2 27 Rainbow (6 Suits) 2020-05-14 — 04:09:40 UTC mayala, uclabb
192767 2 27 Rainbow (6 Suits) 2020-06-03 — 17:39:59 UTC Isa, pixieawa
209650 2 27 Rainbow (6 Suits) 2020-06-17 — 18:22:35 UTC arthur.harvey, benoistvitrac
227298 2 27 Rainbow (6 Suits) 2020-07-03 — 00:10:39 UTC danguskhan, jaycanplay
263547 2 27 Rainbow (6 Suits) 2020-08-06 — 19:11:39 UTC gwenhywfar, meeree
287794 2 27 Rainbow (6 Suits) 2020-09-03 — 05:08:31 UTC Aharon, eliyahoo
295551 2 27 Rainbow (6 Suits) 2020-09-12 — 05:21:18 UTC erinselene, Ota
335304 2 27 Rainbow (6 Suits) 2020-11-04 — 18:05:46 UTC Macert, Sadret
399410 2 27 Rainbow (6 Suits) 2021-01-10 — 20:26:20 UTC Etherealz, missyalyssi
428735 2 27 Rainbow (6 Suits) 2021-02-07 — 06:19:01 UTC babapest, mestrepoke
465820 2 27 Rainbow (6 Suits) 2021-03-12 — 19:45:25 UTC Alex1992, DoraEs
548719 2 27 Rainbow (6 Suits) 2021-06-03 — 18:56:53 UTC JonathanHicks, sole.garcia
50413 2 26 Rainbow (6 Suits) 2019-08-15 — 02:46:42 UTC dragonskitty, Hrusk
63118 2 26 Rainbow (6 Suits) 2019-11-06 — 03:06:06 UTC bmann, emdog
155255 2 26 Rainbow (6 Suits) 2020-05-07 — 02:33:10 UTC muddy, Olorin
166423 2 26 Rainbow (6 Suits) 2020-05-15 — 02:51:19 UTC Crivens_Temp, eliyahu
215811 2 26 Rainbow (6 Suits) 2020-06-23 — 03:57:49 UTC anhnguyen, Starhobo07
253759 2 26 Rainbow (6 Suits) 2020-07-28 — 04:28:01 UTC foinil, sushirameno
262234 2 26 Rainbow (6 Suits) 2020-08-05 — 03:40:09 UTC Bprrg, toddskinner
297291 2 26 Rainbow (6 Suits) 2020-09-14 — 04:24:16 UTC mmsieth, Samantha
299433 2 26 Rainbow (6 Suits) 2020-09-17 — 03:48:48 UTC heftych1, kimgannon
320213 2 26 Rainbow (6 Suits) 2020-10-14 — 10:10:33 UTC pescerosso, rea
517728 2 26 Rainbow (6 Suits) 2021-05-01 — 14:59:36 UTC Wheatie, wifeofwheatie
614595 2 26 Rainbow (6 Suits) 2021-08-25 — 13:54:26 UTC ombrien, Sonea
119180 2 25 Rainbow (6 Suits) 2020-04-12 — 16:52:19 UTC Hawlucha, mperera
128026 2 25 Rainbow (6 Suits) 2020-04-19 — 01:14:54 UTC benwake, Cornflake62
221620 2 25 Rainbow (6 Suits) 2020-06-28 — 04:14:37 UTC meowgli, thelma
317543 2 25 Rainbow (6 Suits) 2020-10-10 — 21:50:51 UTC elsring, missporbothe1st
335700 2 25 Rainbow (6 Suits) 2020-11-05 — 02:17:12 UTC Octavous, shelft
358625 2 25 Rainbow (6 Suits) 2020-12-02 — 01:44:01 UTC mdubz, tossevent
379470 2 25 Rainbow (6 Suits) 2020-12-23 — 03:59:13 UTC Laure, Shazaaaaam
463896 2 25 Rainbow (6 Suits) 2021-03-10 — 21:11:20 UTC anom, Nico123
615589 2 25 Rainbow (6 Suits) 2021-08-26 — 22:59:49 UTC MrSheep, tc2020
162858 2 24 Rainbow (6 Suits) 2020-05-12 — 06:01:29 UTC callistooooo, smallman
488253 2 24 Rainbow (6 Suits) 2021-04-02 — 11:54:14 UTC BRH2020, Rabbeetroot
493058 2 24 Rainbow (6 Suits) 2021-04-07 — 15:22:50 UTC MarieBa, Theklaj
27803 2 23 Rainbow (6 Suits) 2019-04-05 — 06:03:54 UTC lh, Sh
154167 2 23 Rainbow (6 Suits) 2020-05-06 — 05:18:12 UTC Aluap, antitelharsic
226954 2 23 Rainbow (6 Suits) 2020-07-02 — 20:53:43 UTC adi1, anusha2
231983 2 23 Rainbow (6 Suits) 2020-07-07 — 03:10:06 UTC budabloom, mindabloom
433488 2 23 Rainbow (6 Suits) 2021-02-11 — 20:00:57 UTC danielshaun, elsa96
330618 2 22 Rainbow (6 Suits) 2020-10-29 — 20:50:00 UTC eMeRGeD, lorenzo1
4205 2 0 Rainbow (6 Suits) 2018-03-19 — 00:27:10 UTC florrat2, NotRaKXeR
5402 2 0 Rainbow (6 Suits) 2018-04-21 — 19:44:45 UTC Libster, Zamiel
9202 2 0 Rainbow (6 Suits) 2018-08-03 — 03:19:43 UTC efemural, jean
9408 2 0 Rainbow (6 Suits) 2018-08-10 — 23:27:25 UTC dchoi44, kalmasi
11382 2 0 Rainbow (6 Suits) 2018-10-04 — 22:23:52 UTC Andrew_UK, scharkbite
15826 2 0 Rainbow (6 Suits) 2018-12-28 — 20:49:35 UTC demochi, pepsicola
20140 2 0 Rainbow (6 Suits) 2019-02-15 — 22:15:27 UTC Feer, zerlick
36524 2 0 Rainbow (6 Suits) 2019-05-09 — 03:28:27 UTC becksgl, comfyc
44053 2 0 Rainbow (6 Suits) 2019-07-01 — 20:49:51 UTC Göttertöter, Sharklah
53006 2 0 Rainbow (6 Suits) 2019-09-02 — 23:48:10 UTC csq, greggythebear
55929 2 0 Rainbow (6 Suits) 2019-09-22 — 16:14:11 UTC hbjornoy, heddav
61320 2 0 Rainbow (6 Suits) 2019-10-29 — 04:29:56 UTC fivefives, jwngr
64646 2 0 Rainbow (6 Suits) 2019-11-15 — 09:35:33 UTC Dr_Kakashi, RaKXeR
68600 2 0 Rainbow (6 Suits) 2019-12-04 — 06:09:48 UTC Artificial, jba7
72537 2 0 Rainbow (6 Suits) 2019-12-24 — 12:08:27 UTC paradoxical, rakion
79582 2 0 Rainbow (6 Suits) 2020-02-12 — 20:28:13 UTC fh_monday, fr
90980 2 0 Rainbow (6 Suits) 2020-03-17 — 22:49:13 UTC kawsn13, Nigr
92430 2 0 Rainbow (6 Suits) 2020-03-20 — 02:41:39 UTC antizoubilamaka, link825
95096 2 0 Rainbow (6 Suits) 2020-03-23 — 13:16:11 UTC anto.mazzo, mauro
100173 2 0 Rainbow (6 Suits) 2020-03-28 — 20:56:21 UTC ArcheNoah, Sunny_Hanabi
102091 2 0 Rainbow (6 Suits) 2020-03-30 — 01:14:46 UTC hellococo, math444
102202 2 0 Rainbow (6 Suits) 2020-03-30 — 03:05:05 UTC ceciliadevita, pombi
109033 2 0 Rainbow (6 Suits) 2020-04-04 — 19:09:49 UTC Joost, Thomas1234
111149 2 0 Rainbow (6 Suits) 2020-04-06 — 03:34:03 UTC bfichera, brami
111833 2 0 Rainbow (6 Suits) 2020-04-06 — 21:39:09 UTC Axineld, rfrank27
114501 2 0 Rainbow (6 Suits) 2020-04-09 — 19:43:27 UTC mglanzer, rfrank
116199 2 0 Rainbow (6 Suits) 2020-04-10 — 21:59:52 UTC khushi, neerav
118359 2 0 Rainbow (6 Suits) 2020-04-12 — 01:31:00 UTC lrovner, maxnorris13
118386 2 0 Rainbow (6 Suits) 2020-04-12 — 01:45:34 UTC btownshend, raphtown
118507 2 0 Rainbow (6 Suits) 2020-04-12 — 02:54:24 UTC dewey, liwei
124413 2 0 Rainbow (6 Suits) 2020-04-16 — 20:06:19 UTC Fedorov, geor1983
124550 2 0 Rainbow (6 Suits) 2020-04-16 — 21:35:53 UTC asaelr, robense
124939 2 0 Rainbow (6 Suits) 2020-04-17 — 03:16:44 UTC choonabi, ClandestineClue
129023 2 0 Rainbow (6 Suits) 2020-04-19 — 16:30:32 UTC bornagy, nandu13
131704 2 0 Rainbow (6 Suits) 2020-04-21 — 12:24:28 UTC anne.so, tohel71
135403 2 0 Rainbow (6 Suits) 2020-04-24 — 05:15:05 UTC Rick, RickIsNotMe
142622 2 0 Rainbow (6 Suits) 2020-04-28 — 22:26:00 UTC alicia_atsg, robj
142804 2 0 Rainbow (6 Suits) 2020-04-29 — 01:19:25 UTC opurtell, pfinley
142931 2 0 Rainbow (6 Suits) 2020-04-29 — 02:27:49 UTC gaocow, paperairplane69
143055 2 0 Rainbow (6 Suits) 2020-04-29 — 03:36:08 UTC Dilshaad, Dimithi
144313 2 0 Rainbow (6 Suits) 2020-04-30 — 02:59:39 UTC jalmenda, zmill415
144565 2 0 Rainbow (6 Suits) 2020-04-30 — 05:22:39 UTC WadeYao, YYF
146347 2 0 Rainbow (6 Suits) 2020-05-01 — 10:45:02 UTC Guamo, larki
149773 2 0 Rainbow (6 Suits) 2020-05-03 — 06:28:29 UTC oatmilk, sundried_tomato
151982 2 0 Rainbow (6 Suits) 2020-05-04 — 19:38:13 UTC Allemoor, Kilkame
152866 2 0 Rainbow (6 Suits) 2020-05-05 — 06:52:38 UTC Crivens, miriamattia
157949 2 0 Rainbow (6 Suits) 2020-05-09 — 03:11:54 UTC Brownp, dcrawford
160389 2 0 Rainbow (6 Suits) 2020-05-10 — 15:25:03 UTC Ch1cken, frollo9386
162681 2 0 Rainbow (6 Suits) 2020-05-12 — 03:53:14 UTC clayt, kitcat
163243 2 0 Rainbow (6 Suits) 2020-05-12 — 18:00:15 UTC annieboboh, penguin69
172485 2 0 Rainbow (6 Suits) 2020-05-19 — 04:08:37 UTC baozi, moontwist11
174579 2 0 Rainbow (6 Suits) 2020-05-20 — 23:57:51 UTC TheDaniMan, wshin0104
177367 2 0 Rainbow (6 Suits) 2020-05-23 — 01:21:17 UTC Bageer, beanstalk
178806 2 0 Rainbow (6 Suits) 2020-05-23 — 23:48:43 UTC cdmcfarland, davidgokhman
181893 2 0 Rainbow (6 Suits) 2020-05-26 — 01:13:34 UTC cchangame, SEKs
183636 2 0 Rainbow (6 Suits) 2020-05-27 — 13:10:31 UTC Anaïs, Lissange
184472 2 0 Rainbow (6 Suits) 2020-05-28 — 03:53:26 UTC mmv, tneerukonda
184494 2 0 Rainbow (6 Suits) 2020-05-28 — 04:04:49 UTC buxtehude11, yee claw
199641 2 0 Rainbow (6 Suits) 2020-06-09 — 01:40:21 UTC mfl, vmplays
201304 2 0 Rainbow (6 Suits) 2020-06-10 — 07:47:21 UTC RespectCaviar, schemetrical
201587 2 0 Rainbow (6 Suits) 2020-06-10 — 18:48:44 UTC Ewan, Willoughby
201815 2 0 Rainbow (6 Suits) 2020-06-10 — 21:48:27 UTC pokgai1, seefut
212127 2 0 Rainbow (6 Suits) 2020-06-20 — 00:09:51 UTC mirza, shhh
214196 2 0 Rainbow (6 Suits) 2020-06-21 — 16:35:40 UTC adik, oldgreg
217186 2 0 Rainbow (6 Suits) 2020-06-24 — 13:26:27 UTC Fuuut, Reinier
225655 2 0 Rainbow (6 Suits) 2020-07-01 — 18:36:37 UTC higamel, Maestra
229068 2 0 Rainbow (6 Suits) 2020-07-04 — 09:49:50 UTC jons14, L1
230344 2 0 Rainbow (6 Suits) 2020-07-05 — 20:08:07 UTC Barthe, roosmariej
238041 2 0 Rainbow (6 Suits) 2020-07-13 — 04:00:43 UTC gaboross, Otyika
238877 2 0 Rainbow (6 Suits) 2020-07-14 — 03:59:56 UTC julian5, Laura17
241720 2 0 Rainbow (6 Suits) 2020-07-16 — 17:58:35 UTC aewyna, Shinja
244863 2 0 Rainbow (6 Suits) 2020-07-19 — 07:02:26 UTC melodywu, premc
248502 2 0 Rainbow (6 Suits) 2020-07-23 — 04:51:20 UTC ben10, chung
250915 2 0 Rainbow (6 Suits) 2020-07-25 — 19:26:00 UTC alerk, awhickey
253099 2 0 Rainbow (6 Suits) 2020-07-27 — 15:52:58 UTC eljobe, Fey
256246 2 0 Rainbow (6 Suits) 2020-07-30 — 15:00:06 UTC Lee3, RickSanchez
268198 2 0 Rainbow (6 Suits) 2020-08-11 — 19:23:20 UTC bluecow, toddobutorange
282808 2 0 Rainbow (6 Suits) 2020-08-28 — 19:24:04 UTC ihavenoidea, VerySloppyTwo
284348 2 0 Rainbow (6 Suits) 2020-08-30 — 03:23:10 UTC evieisbad, ijs
286526 2 0 Rainbow (6 Suits) 2020-09-01 — 20:53:16 UTC johnboy81918, Stephzheng
289143 2 0 Rainbow (6 Suits) 2020-09-04 — 20:47:14 UTC lvlotiejus52, motiejus52
294349 2 0 Rainbow (6 Suits) 2020-09-10 — 22:16:33 UTC Bjuuti, markus1
295388 2 0 Rainbow (6 Suits) 2020-09-12 — 03:29:42 UTC mbluewolverine, Ornamentalist
296113 2 0 Rainbow (6 Suits) 2020-09-12 — 21:17:05 UTC helicopter, ichaelm
302139 2 0 Rainbow (6 Suits) 2020-09-20 — 04:33:31 UTC maryplantthomas, philipgerstoft
302203 2 0 Rainbow (6 Suits) 2020-09-20 — 06:45:07 UTC lojones9210, saxplaya007
302765 2 0 Rainbow (6 Suits) 2020-09-21 — 00:13:22 UTC hu.man01, Stradguy1
304329 2 0 Rainbow (6 Suits) 2020-09-23 — 00:35:20 UTC BobbyK, jmcatamney
305622 2 0 Rainbow (6 Suits) 2020-09-24 — 22:31:24 UTC gracia5180, harikari.live
306695 2 0 Rainbow (6 Suits) 2020-09-26 — 06:01:01 UTC gsherm, timt
308789 2 0 Rainbow (6 Suits) 2020-09-29 — 02:12:05 UTC IsabeltheCat, Relicia
310045 2 0 Rainbow (6 Suits) 2020-10-01 — 01:04:49 UTC BlueNovember, Crux
318351 2 0 Rainbow (6 Suits) 2020-10-11 — 22:37:38 UTC etyg, klshen
321456 2 0 Rainbow (6 Suits) 2020-10-16 — 05:46:21 UTC Chad.Cor, chadhealy
328259 2 0 Rainbow (6 Suits) 2020-10-25 — 22:56:37 UTC coachamera, jasmine
330928 2 0 Rainbow (6 Suits) 2020-10-30 — 04:21:00 UTC mko2, rpbd
338116 2 0 Rainbow (6 Suits) 2020-11-08 — 05:42:53 UTC Dawit, jelzur3
348274 2 0 Rainbow (6 Suits) 2020-11-20 — 01:46:52 UTC anser, william65537
348340 2 0 Rainbow (6 Suits) 2020-11-20 — 02:55:53 UTC mrpoopybutthole, Mrspoopy
351679 2 0 Rainbow (6 Suits) 2020-11-23 — 14:35:13 UTC callistooooooo, newacc
360078 2 0 Rainbow (6 Suits) 2020-12-04 — 00:09:08 UTC Jake_Stiles, rz
367176 2 0 Rainbow (6 Suits) 2020-12-11 — 00:02:33 UTC KitKat13, torp
368763 2 0 Rainbow (6 Suits) 2020-12-12 — 09:09:50 UTC Alchemist75, victorywys
369352 2 0 Rainbow (6 Suits) 2020-12-13 — 00:25:17 UTC LdeAmorin, Matías_V5
371393 2 0 Rainbow (6 Suits) 2020-12-15 — 03:19:47 UTC jarhill0, jarhillO
372188 2 0 Rainbow (6 Suits) 2020-12-15 — 22:08:15 UTC oatty, sunflower
379401 2 0 Rainbow (6 Suits) 2020-12-23 — 03:07:48 UTC deeps, sarahjcg
380810 2 0 Rainbow (6 Suits) 2020-12-24 — 09:21:37 UTC dartemis13, foo
391990 2 0 Rainbow (6 Suits) 2021-01-04 — 01:57:17 UTC boodles100, sleibson
398841 2 0 Rainbow (6 Suits) 2021-01-10 — 06:00:40 UTC Cold, Shad_Crow
398900 2 0 Rainbow (6 Suits) 2021-01-10 — 06:49:17 UTC howlcity, socerman
406633 2 0 Rainbow (6 Suits) 2021-01-17 — 21:34:57 UTC glend, tacobot5000
407286 2 0 Rainbow (6 Suits) 2021-01-18 — 10:22:31 UTC i421, yotamamir
409834 2 0 Rainbow (6 Suits) 2021-01-20 — 19:50:13 UTC ajsehifowha, dunes1
416541 2 0 Rainbow (6 Suits) 2021-01-27 — 18:36:23 UTC john120283, princeton
424319 2 0 Rainbow (6 Suits) 2021-02-03 — 19:19:51 UTC Feich59, Kowalski1337
427957 2 0 Rainbow (6 Suits) 2021-02-06 — 20:30:49 UTC gubs, pink
435522 2 0 Rainbow (6 Suits) 2021-02-13 — 07:02:04 UTC Lampz, Mage
436180 2 0 Rainbow (6 Suits) 2021-02-14 — 00:38:22 UTC aesophsfables, shocksteel
437035 2 0 Rainbow (6 Suits) 2021-02-14 — 17:18:01 UTC paari, peponenazionale
438205 2 0 Rainbow (6 Suits) 2021-02-15 — 18:08:01 UTC Junkrat, QP
439114 2 0 Rainbow (6 Suits) 2021-02-16 — 13:48:32 UTC lst, marvolo2
441697 2 0 Rainbow (6 Suits) 2021-02-19 — 05:18:50 UTC bockers, Meghan1234567
445527 2 0 Rainbow (6 Suits) 2021-02-22 — 15:33:28 UTC macanek, need4speed
452120 2 0 Rainbow (6 Suits) 2021-02-28 — 19:15:08 UTC J.Ole, RayW
454694 2 0 Rainbow (6 Suits) 2021-03-02 — 23:55:19 UTC gsug, ohughes
470379 2 0 Rainbow (6 Suits) 2021-03-16 — 20:17:34 UTC DaVince, Ritz1974
471284 2 0 Rainbow (6 Suits) 2021-03-17 — 13:26:56 UTC annita7B, IGNaval
472735 2 0 Rainbow (6 Suits) 2021-03-18 — 21:05:30 UTC JoostM, Jorrit12345
473648 2 0 Rainbow (6 Suits) 2021-03-19 — 16:55:43 UTC Footscrayzy, Noble
484971 2 0 Rainbow (6 Suits) 2021-03-30 — 00:44:13 UTC bearcowtoasterz, Puritifyer
485623 2 0 Rainbow (6 Suits) 2021-03-30 — 19:13:33 UTC Finessed, Stavfx
489415 2 0 Rainbow (6 Suits) 2021-04-03 — 16:09:58 UTC SuperKaczor, wygrywamalbonie
489773 2 0 Rainbow (6 Suits) 2021-04-03 — 23:18:33 UTC BasH, Blaster---
501897 2 0 Rainbow (6 Suits) 2021-04-15 — 16:40:26 UTC ATrueZen, dj.narayanan
517732 2 0 Rainbow (6 Suits) 2021-05-01 — 15:05:25 UTC itchy, tactical
521815 2 0 Rainbow (6 Suits) 2021-05-06 — 02:10:55 UTC boggle, Scarlet
524020 2 0 Rainbow (6 Suits) 2021-05-08 — 08:07:15 UTC FizzyLizzy123, Ignasis
535194 2 0 Rainbow (6 Suits) 2021-05-20 — 01:27:20 UTC jean_franc_bleu, loohye
549890 2 0 Rainbow (6 Suits) 2021-06-04 — 16:19:53 UTC infinity00, zetty0817
562772 2 0 Rainbow (6 Suits) 2021-06-14 — 17:50:02 UTC asdfasdfasdA, Helllooooooo
567762 2 0 Rainbow (6 Suits) 2021-06-19 — 21:06:05 UTC AnastasiaN, RavenGr
571882 2 0 Rainbow (6 Suits) 2021-06-24 — 09:35:54 UTC Polymath, sen88
576043 2 0 Rainbow (6 Suits) 2021-06-28 — 01:30:28 UTC Offset, SpinTop
581161 2 0 Rainbow (6 Suits) 2021-07-03 — 21:07:20 UTC Aroma1997, EsorX
589905 2 0 Rainbow (6 Suits) 2021-07-15 — 19:17:49 UTC dingyue, jc123432
603679 2 0 Rainbow (6 Suits) 2021-08-07 — 12:29:03 UTC Lel0uch, melwen
610786 2 0 Rainbow (6 Suits) 2021-08-19 — 21:28:30 UTC Charles123123, wardsux1
612160 2 0 Rainbow (6 Suits) 2021-08-21 — 10:17:25 UTC HanabOfficial, lamington
612791 2 0 Rainbow (6 Suits) 2021-08-22 — 20:21:26 UTC randomguy, y..y
613062 2 0 Rainbow (6 Suits) 2021-08-23 — 04:25:42 UTC nohk, Sam_Pahk
618926 2 0 Rainbow (6 Suits) 2021-09-01 — 08:20:39 UTC AJNOLAN95, DaVeryGoodWaaan
619128 2 0 Rainbow (6 Suits) 2021-09-01 — 19:06:29 UTC asdasdasda, JTJTJTJTJT
625477 2 0 Rainbow (6 Suits) 2021-09-12 — 21:52:33 UTC butterflydem2, Mayabeth9
628897 2 0 Rainbow (6 Suits) 2021-09-18 — 23:49:45 UTC mctricozzi, rhcpfan713
630035 2 0 Rainbow (6 Suits) 2021-09-20 — 22:47:13 UTC TJTJTJJTTJ, zxczxczxczxczxc
631391 2 0 Rainbow (6 Suits) 2021-09-23 — 15:10:27 UTC HiIIIHIII, LEAVE
633869 2 0 Rainbow (6 Suits) 2021-09-27 — 19:41:22 UTC potato_laptop, wardsux2